Location: Frankfurt+am+Main
(50.1100°N, 8.4815°E)
Time: 09:21:58
(UTC+01:00)

ISS - Pass Details

Date: 10 February 2018
Orbit: 402 x 407 km, 51.6° (Epoch: 24 February)

Event Time Altitude Azimuth Distance (km) Brightness Sun altitude
Rises 18:38:52 0° 287° (WNW) 2,322 1.3 -10.6°
Reaches altitude 10° 18:41:00 10° 280° (W) 1,460 0.3 -11.0°
Maximum altitude 18:44:06 41° 209° (SSW) 604 -2.6 -11.4°
Drops below altitude 10° 18:47:12 10° 138° (SE) 1,455 -1.3 -11.9°
Enters shadow 18:47:34 - 136° (SE) 1,604 -1.1 -12.0°
